Location: ?????????
(38.0736°N, 23.2119°E)
Time: 03:24:32
(UTC+00:00)

CZ-4 R/B - Pass Details

Date: 18 April 2024
Orbit: 516 x 572 km, 97.6° (Epoch: 20 May)

Event Time Altitude Azimuth Distance (km) Brightness Sun altitude
Rises 17:52:05 0° 166° (SSE) 2,717 4.5 -9.4°
Reaches altitude 10° 17:54:13 10° 167° (SSE) 1,817 3.6 -9.7°
Maximum altitude 17:58:09 89° 84° (E) 548 1.3 -10.5°
Drops below altitude 10° 18:02:02 10° 348° (NNW) 1,796 4.4 -11.2°
Sets 18:04:08 0° 349° (NNW) 2,682 5.4 -11.5°
